This is the latest recevied weather packets stored in our database for station/object KG0HG. If no packets are shown the sender has not sent any weather packets the latest 10 day(s).
| Time | Temp. | Humidity | Pressure | Rain* | Wind** | Luminosity | Snow |
|---|---|---|---|---|---|---|---|
| 1777415752 | 15° C | 71% | 1013.8 hPa | 0 mm | - | 90 W/m² | - |
| 1777415449 | 15° C | 70% | 1014.1 hPa | 0 mm | - | 105 W/m² | - |
| 1777415144 | 15° C | 71% | 1014.3 hPa | 0 mm | - | 87 W/m² | - |
| 1777414839 | 14.44° C | 72% | 1014.2 hPa | 0 mm | - | 102 W/m² | - |
| 1777414534 | 14.44° C | 72% | 1014 hPa | 0 mm | - | 105 W/m² | - |
| 1777414234 | 14.44° C | 70% | 1014 hPa | 0 mm | - | 85 W/m² | - |
| 1777413929 | 14.44° C | 71% | 1013.9 hPa | 0 mm | - | 118 W/m² | - |
| 1777413624 | 14.44° C | 70% | 1014.1 hPa | 0 mm | - | 123 W/m² | - |
| 1777413321 | 14.44° C | 72% | 1013.8 hPa | 0 mm | - | 130 W/m² | - |
| 1777413016 | 14.44° C | 71% | 1014.2 hPa | 0 mm | - | 133 W/m² | - |
| 1777412715 | 14.44° C | 71% | 1014.1 hPa | 0 mm | - | 92 W/m² | - |
| 1777412414 | 13.89° C | 71% | 1014 hPa | 0 mm | - | 126 W/m² | - |
| 1777412108 | 13.89° C | 71% | 1014.4 hPa | 0 mm | - | 108 W/m² | - |
| 1777411804 | 13.89° C | 71% | 1014.2 hPa | 0 mm | - | 106 W/m² | - |
| 1777411502 | 13.89° C | 71% | 1014.2 hPa | 0 mm | - | 129 W/m² | - |
| 1777411202 | 13.89° C | 71% | 1014.1 hPa | 0 mm | - | 130 W/m² | - |
| 1777410897 | 13.89° C | 71% | 1013.9 hPa | 0 mm | - | 135 W/m² | - |
| 1777410590 | 14.44° C | 70% | 1014 hPa | 0 mm | - | 158 W/m² | - |
| 1777410285 | 13.89° C | 71% | 1014 hPa | 0 mm | - | 172 W/m² | - |
| 1777409980 | 13.89° C | 72% | 1014.1 hPa | 0 mm | - | 180 W/m² | - |
| 1777409675 | 13.89° C | 72% | 1014.2 hPa | 0 mm | - | 198 W/m² | - |
| 1777409372 | 13.33° C | 73% | 1014.3 hPa | 0 mm | - | 173 W/m² | - |
| 1777409067 | 13.33° C | 73% | 1014.2 hPa | 0 mm | - | 179 W/m² | - |
| 1777408764 | 13.89° C | 72% | 1014.6 hPa | 0 mm | - | 156 W/m² | - |
| 1777408460 | 13.89° C | 72% | 1014.8 hPa | 0 mm | - | 136 W/m² | - |
* Rain latest hour (hover to see other rain measurements)
** Current wind speed in m/s (hover to see current wind gust speed)